[TLELIST] Archives

 

[list_settings.list_name] Current TLEs

November 7th 2022 PST

HST 1 20580U 90037B 22310.73263303 .00003718 00000-0 20510-3 0 9999 2 20580 28.4708 305.6655 0002773 131.4418 41.9590 15.11203978588025 ISS (ZARYA) 1 25544U 98067A 22311.33563978 .00015595 00000-0 28220-3 0 9995 2 25544 51.6466 347.4487 0006557 48.4539 59.0059 15.49832231367386 CXO 1 25867U 99040B 22310.84153000 .00000618 00000-0 00000-0 0 9994 2 25867 41.5492 222.8408 8952018 242.1271 0.2083 0.37810014 12340 ____________________________________________________________________ These 2-Line ...Continue Reading

[list_settings.list_name] Current TLEs

November 6th 2022 PST

HST 1 20580U 90037B 22309.74062152 .00004237 00000-0 23524-3 0 9992 2 20580 28.4708 312.2452 0002795 121.6559 44.1667 15.11196796587607 ISS (ZARYA) 1 25544U 98067A 22310.38282407 .00017237 00000-0 31126-3 0 9998 2 25544 51.6454 352.1692 0006464 46.3477 141.5385 15.49808781367235 CXO 1 25867U 99040B 22310.84153000 .00000618 00000-0 00000-0 0 9994 2 25867 41.5492 222.8408 8952018 242.1271 0.2083 0.37810014 12340 ____________________________________________________________________ These 2-Line ...Continue Reading

[list_settings.list_name] Current TLEs

November 5th 2022 PST

HST 1 20580U 90037B 22308.74939684 .00004784 00000-0 26706-3 0 9996 2 20580 28.4709 318.8196 0002815 111.9297 50.6325 15.11189257587459 ISS (ZARYA) 1 25544U 98067A 22309.14128797 .00017023 00000-0 30799-3 0 9999 2 25544 51.6453 358.3169 0006408 42.0436 54.4506 15.49764515367049 CXO 1 25867U 99040B 22310.84153000 .00000618 00000-0 00000-0 0 9994 2 25867 41.5492 222.8408 8952018 242.1271 0.2083 0.37810014 12340 ____________________________________________________________________ These 2-Line ...Continue Reading

[list_settings.list_name] Current TLEs

November 4th 2022 PST

HST 1 20580U 90037B 22308.13480873 .00004968 00000-0 27774-3 0 9990 2 20580 28.4710 322.8958 0002829 106.2192 306.1821 15.11184569587628 ISS (ZARYA) 1 25544U 98067A 22308.36869056 .00016675 00000-0 30218-3 0 9990 2 25544 51.6451 2.1432 0006343 38.5331 64.7055 15.49735621366921 CXO 1 25867U 99040B 22310.84083243 .00000618 00000-0 00000+0 0 9994 2 25867 41.5491 222.8407 8952049 242.1273 0.1142 0.37810035 23490 ____________________________________________________________________ These 2-Line ...Continue Reading

[list_settings.list_name] Current TLEs

November 3rd 2022 PST

HST 1 20580U 90037B 22306.49572380 .00004000 00000-0 22167-3 0 9990 2 20580 28.4713 333.7666 0002836 90.4308 27.2620 15.11168909587111 ISS (ZARYA) 1 25544U 98067A 22307.39895310 .00017310 00000-0 31368-3 0 9998 2 25544 51.6453 6.9445 0006467 35.6599 53.8579 15.49704861366775 CXO 1 25867U 99040B 22308.19678436 .00000767 00000-0 00000-0 0 9999 2 25867 41.6064 223.0787 8946761 241.9602 0.1588 0.37810134 12322 ____________________________________________________________________ These 2-Line ...Continue Reading

[list_settings.list_name] Current TLEs

November 2nd 2022 PST

HST 1 20580U 90037B 22305.50455899 .00004068 00000-0 22567-3 0 9994 2 20580 28.4715 340.3400 0002825 80.6997 34.1601 15.11161391586962 ISS (ZARYA) 1 25544U 98067A 22306.36855057 .00018242 00000-0 33049-3 0 9991 2 25544 51.6450 12.0476 0006429 32.7844 64.4633 15.49672064366614 CXO 1 25867U 99040B 22308.19678436 .00000767 00000-0 00000-0 0 9999 2 25867 41.6064 223.0787 8946761 241.9602 0.1588 0.37810134 12322 ____________________________________________________________________ These 2-Line ...Continue Reading

[list_settings.list_name] Current TLEs

November 1st 2022 PST

HST 1 20580U 90037B 22304.85470066 .00003953 00000-0 21905-3 0 9991 2 20580 28.4715 344.6496 0002804 74.3297 98.1711 15.11156006586862 ISS (ZARYA) 1 25544U 98067A 22305.34043728 .00017890 00000-0 32473-3 0 9990 2 25544 51.6447 17.1373 0006326 27.7821 90.0906 15.49632534366455 CXO 1 25867U 99040B 22308.19628324 .00000767 00000-0 00000+0 0 9999 2 25867 41.6064 223.0787 8946752 241.9602 0.0905 0.37810651 23487 ____________________________________________________________________ These 2-Line ...Continue Reading

[list_settings.list_name] Current TLEs

October 31st 2022 PST

HST 1 20580U 90037B 22303.86234170 .00003796 00000-0 20996-3 0 9999 2 20580 28.4715 351.2307 0002763 64.3564 98.8495 15.11148545586716 ISS (ZARYA) 1 25544U 98067A 22304.19685738 .00015777 00000-0 28792-3 0 9996 2 25544 51.6441 22.7991 0006276 23.0510 191.0101 15.49582193366279 CXO 1 25867U 99040B 22305.55518845 .00000924 00000-0 00000-0 0 9998 2 25867 41.6441 223.2730 8943051 241.8360 0.4825 0.37812643 12313 ____________________________________________________________________ These 2-Line ...Continue Reading

[list_settings.list_name] Current TLEs

October 30th 2022 PST

HST 1 20580U 90037B 22302.60059763 .00003625 00000-0 20008-3 0 9998 2 20580 28.4716 359.5980 0002717 52.0781 73.4676 15.11139963586522 ISS (ZARYA) 1 25544U 98067A 22302.76591278 .00013125 00000-0 24143-3 0 9993 2 25544 51.6445 29.8847 0006083 18.6921 127.6792 15.49526609366050 CXO 1 25867U 99040B 22305.55206589 .00000924 00000-0 00000+0 0 9996 2 25867 41.6458 223.2764 8942986 241.8324 0.0584 0.37813939 23470 ____________________________________________________________________ These 2-Line ...Continue Reading

[list_settings.list_name] Current TLEs

October 29th 2022 PST

HST 1 20580U 90037B 22301.60897546 .00003031 00000-0 16559-3 0 9993 2 20580 28.4715 6.1739 0002661 42.3289 77.9966 15.11132591586375 ISS (ZARYA) 1 25544U 98067A 22302.37338382 .00012655 00000-0 23321-3 0 9999 2 25544 51.6439 31.8270 0006001 16.2778 99.0062 15.49513623365996 CXO 1 25867U 99040B 22302.91003128 .00000978 00000-0 00000-0 0 9997 2 25867 41.7090 223.5259 8940860 241.6660 0.2998 0.37814330 12302 ____________________________________________________________________ These 2-Line ...Continue Reading
  • This mailing list is a public mailing list - anyone may join or leave, at any time.
  • This mailing list is announce-only.

International Space Station (ISS) / Hubble Space Telescope (HST) / Chandra X-Ray Observatory Orbital Data via EMAIL

Privacy Policy:

Private list